User: anonymous   Login
Location: Colonia Mina de C?rbuni
(46.1667°N, 22.7167°E)
Time: 17:33:11
(UTC+00:00)
Language:

Transit 2A Rocket - Orbit

View from above orbital plane
View from above orbital plane
View from above satellite
View from above satellite

Ground track
Ground track

The orbit data is extracted from the following two-line orbital elements,

1 00047U 60007C   24109.95256196  .00002280  00000-0  51934-3 0  9990
2 00047  66.6687   5.2213 0224591 355.4120   4.4920 14.43468600336814
Epoch (UTC): 18 April 2024 22:51:41
Eccentricity: 0.0224591
inclination: 66.6687°
perigee height: 587 km
apogee height: 907 km
right ascension of ascending node: 5.2213°
argument of perigee: 355.4120°
revolutions per day: 14.43468600
mean anomaly at epoch: 4.4920°
orbit number at epoch: 33681

The dashed part of the orbit path shows where the satellite is in the earth's shadow,  

DLR